Terminal Aerodrome Forecast
Issued by NWS

Home | Current Version | Previous Version | Text Only | Print | Product List | Glossary On
Versions: 1 2 3 4 5 6 7 8 9 10 11 12 13 14 15 16 17 18 19 20
000
FTUS43 KLSX 262300
TAFCPS
TAF
KCPS 262326Z 2700/2724 VRB03KT 3SM -DZSN BR OVC006
      TEMPO 2700/2702 1SM -SN BR
     FM270200 32007KT 6SM -RASN BR OVC009
     FM270500 32011KT P6SM OVC007
     FM271200 31010KT P6SM OVC015
     FM271800 31010KT P6SM SCT025 BKN250=

USA.gov is the U.S. government's official web portal to all federal, state and local government web resources and services.